timestamp,wind_dir_avg,wind_spd_max_dir,wind_spd_avg,wind_spd_gust,battery_voltage,lat,long
2018-02-14 00:00:00+00:00,329.0,329.0,5.81,8.57,,47.59359,-54.27349
2018-02-14 00:10:00+00:00,322.0,336.0,7.56,9.92,,47.59359,-54.27349
2018-02-14 00:20:00+00:00,336.0,337.0,8.1,12.12,,47.59359,-54.27349
2018-02-14 00:30:00+00:00,335.0,344.0,7.92,10.97,,47.59359,-54.27349
2018-02-14 00:40:00+00:00,330.0,332.0,6.16,8.52,,47.59359,-54.27349
2018-02-14 00:50:00+00:00,327.0,340.0,5.23,7.31,,47.59359,-54.27349
2018-02-14 01:00:00+00:00,325.0,329.0,5.3,8.04,,47.59359,-54.27349
2018-02-14 01:10:00+00:00,329.0,330.0,4.21,6.85,,47.59359,-54.27349
2018-02-14 01:20:00+00:00,332.0,331.0,4.78,9.33,,47.59359,-54.27349
2018-02-14 01:30:00+00:00,328.0,333.0,4.91,6.61,,47.59359,-54.27349
2018-02-14 01:40:00+00:00,321.0,328.0,6.11,8.94,,47.59359,-54.27349
2018-02-14 01:50:00+00:00,330.0,321.0,5.0,6.15,,47.59359,-54.27349
2018-02-14 02:00:00+00:00,326.0,324.0,4.77,5.76,,47.59359,-54.27349
2018-02-14 02:10:00+00:00,324.0,323.0,5.29,7.15,,47.59359,-54.27349
2018-02-14 02:20:00+00:00,315.0,313.0,5.64,7.01,,47.59359,-54.27349
2018-02-14 02:30:00+00:00,313.0,311.0,5.12,7.28,,47.59359,-54.27349
2018-02-14 02:40:00+00:00,321.0,327.0,6.08,8.1,,47.59359,-54.27349
2018-02-14 02:50:00+00:00,322.0,308.0,5.54,7.55,,47.59359,-54.27349
2018-02-14 03:00:00+00:00,326.0,329.0,7.44,9.33,,47.59359,-54.27349
2018-02-14 03:10:00+00:00,326.0,328.0,8.32,10.73,,47.59359,-54.27349
2018-02-14 03:20:00+00:00,316.0,312.0,5.85,7.76,,47.59359,-54.27349
2018-02-14 03:30:00+00:00,323.0,307.0,5.58,7.91,,47.59359,-54.27349
2018-02-14 03:40:00+00:00,318.0,323.0,6.59,8.01,,47.59359,-54.27349
2018-02-14 03:50:00+00:00,324.0,322.0,8.07,11.56,,47.59359,-54.27349
2018-02-14 04:00:00+00:00,323.0,345.0,6.6,9.5,,47.59359,-54.27349
2018-02-14 04:10:00+00:00,320.0,329.0,7.08,8.86,,47.59359,-54.27349
2018-02-14 04:20:00+00:00,323.0,320.0,7.5,9.06,,47.59359,-54.27349
2018-02-14 04:30:00+00:00,324.0,335.0,7.37,9.45,,47.59359,-54.27349
2018-02-14 04:40:00+00:00,321.0,333.0,7.08,8.66,,47.59359,-54.27349
2018-02-14 04:50:00+00:00,313.0,282.0,6.81,25.7,,47.59359,-54.27349
2018-02-14 05:00:00+00:00,320.0,333.0,6.69,8.69,,47.59359,-54.27349
2018-02-14 05:10:00+00:00,320.0,323.0,6.25,7.8,,47.59359,-54.27349
2018-02-14 05:20:00+00:00,320.0,321.0,6.15,8.12,,47.59359,-54.27349
2018-02-14 05:30:00+00:00,319.0,315.0,6.01,7.54,,47.59359,-54.27349
2018-02-14 05:40:00+00:00,314.0,303.0,7.18,9.39,,47.59359,-54.27349
2018-02-14 05:50:00+00:00,319.0,323.0,6.98,9.89,,47.59359,-54.27349
2018-02-14 06:00:00+00:00,325.0,328.0,8.62,10.91,,47.59359,-54.27349
2018-02-14 06:10:00+00:00,312.0,299.0,7.53,9.67,,47.59359,-54.27349
2018-02-14 06:20:00+00:00,311.0,303.0,6.27,9.3,,47.59359,-54.27349
2018-02-14 06:30:00+00:00,317.0,321.0,5.66,7.57,,47.59359,-54.27349
2018-02-14 06:40:00+00:00,310.0,311.0,5.92,7.99,,47.59359,-54.27349
2018-02-14 06:50:00+00:00,321.0,323.0,5.68,6.82,,47.59359,-54.27349
2018-02-14 07:00:00+00:00,298.0,309.0,6.51,8.88,,47.59359,-54.27349
2018-02-14 07:10:00+00:00,298.0,301.0,5.34,7.85,,47.59359,-54.27349
2018-02-14 07:20:00+00:00,305.0,310.0,5.36,7.07,,47.59359,-54.27349
2018-02-14 07:30:00+00:00,309.0,306.0,7.66,9.66,,47.59359,-54.27349
2018-02-14 07:40:00+00:00,303.0,304.0,8.5,10.58,,47.59359,-54.27349
2018-02-14 07:50:00+00:00,306.0,310.0,6.99,9.04,,47.59359,-54.27349
2018-02-14 08:00:00+00:00,304.0,309.0,8.9,11.15,,47.59359,-54.27349
2018-02-14 08:10:00+00:00,294.0,290.0,7.12,8.44,,47.59359,-54.27349
2018-02-14 08:20:00+00:00,291.0,292.0,6.5,8.78,,47.59359,-54.27349
2018-02-14 08:30:00+00:00,308.0,307.0,8.75,10.74,,47.59359,-54.27349
2018-02-14 08:40:00+00:00,315.0,314.0,7.96,9.58,,47.59359,-54.27349
2018-02-14 08:50:00+00:00,316.0,314.0,6.19,9.32,,47.59359,-54.27349
2018-02-14 09:00:00+00:00,314.0,320.0,4.47,6.21,,47.59359,-54.27349
2018-02-14 09:10:00+00:00,309.0,316.0,2.79,4.13,,47.59359,-54.27349
2018-02-14 09:20:00+00:00,300.0,283.0,2.82,4.58,,47.59359,-54.27349
2018-02-14 09:30:00+00:00,296.0,299.0,3.43,4.69,,47.59359,-54.27349
2018-02-14 09:40:00+00:00,311.0,295.0,2.54,4.36,,47.59359,-54.27349
2018-02-14 09:50:00+00:00,303.0,302.0,4.5,6.19,,47.59359,-54.27349
2018-02-14 10:00:00+00:00,293.0,298.0,3.44,5.05,,47.59359,-54.27349
2018-02-14 10:10:00+00:00,321.0,328.0,3.44,4.75,,47.59359,-54.27349
2018-02-14 10:20:00+00:00,325.0,319.0,4.64,5.44,,47.59359,-54.27349
2018-02-14 10:30:00+00:00,309.0,308.0,3.47,4.99,,47.59359,-54.27349
2018-02-14 10:40:00+00:00,313.0,290.0,2.01,4.18,,47.59359,-54.27349
2018-02-14 10:50:00+00:00,305.0,296.0,2.07,3.31,,47.59359,-54.27349
2018-02-14 11:00:00+00:00,319.0,321.0,3.74,4.91,,47.59359,-54.27349
2018-02-14 11:10:00+00:00,316.0,320.0,3.95,5.73,,47.59359,-54.27349
2018-02-14 11:20:00+00:00,309.0,312.0,4.51,5.67,,47.59359,-54.27349
2018-02-14 11:30:00+00:00,319.0,319.0,4.9,6.34,,47.59359,-54.27349
2018-02-14 11:40:00+00:00,300.0,292.0,2.51,3.9,,47.59359,-54.27349
2018-02-14 11:50:00+00:00,254.0,248.0,2.8,5.03,,47.59359,-54.27349
2018-02-14 12:00:00+00:00,275.0,272.0,2.12,4.38,,47.59359,-54.27349
2018-02-14 12:10:00+00:00,266.0,255.0,5.35,7.34,,47.59359,-54.27349
2018-02-14 12:20:00+00:00,268.0,267.0,6.35,7.49,,47.59359,-54.27349
2018-02-14 12:30:00+00:00,269.0,269.0,8.04,9.63,,47.59359,-54.27349
2018-02-14 12:40:00+00:00,255.0,259.0,6.62,10.26,,47.59359,-54.27349
2018-02-14 12:50:00+00:00,253.0,264.0,3.83,5.59,,47.59359,-54.27349
2018-02-14 13:00:00+00:00,253.0,249.0,5.68,10.2,,47.59359,-54.27349
2018-02-14 13:10:00+00:00,257.0,250.0,6.36,8.92,,47.59359,-54.27349
2018-02-14 13:20:00+00:00,256.0,253.0,7.72,9.34,,47.59359,-54.27349
2018-02-14 13:30:00+00:00,242.0,239.0,8.99,10.65,,47.59359,-54.27349
2018-02-14 13:40:00+00:00,251.0,245.0,8.41,10.1,,47.59359,-54.27349
2018-02-14 13:50:00+00:00,257.0,262.0,12.6,17.4,,47.59359,-54.27349
2018-02-14 14:00:00+00:00,255.0,253.0,11.28,12.1,,47.59359,-54.27349
2018-02-14 14:10:00+00:00,255.0,257.0,14.84,19.03,,47.59359,-54.27349
2018-02-14 14:20:00+00:00,250.0,259.0,13.39,18.2,,47.59359,-54.27349
2018-02-14 14:30:00+00:00,257.0,268.0,10.42,12.03,,47.59359,-54.27349
2018-02-14 14:40:00+00:00,261.0,259.0,10.39,12.19,,47.59359,-54.27349
2018-02-14 14:50:00+00:00,255.0,252.0,11.37,15.32,,47.59359,-54.27349
2018-02-14 15:00:00+00:00,263.0,263.0,14.47,19.06,,47.59359,-54.27349
2018-02-14 15:10:00+00:00,266.0,265.0,13.82,18.14,,47.59359,-54.27349
2018-02-14 15:20:00+00:00,269.0,267.0,14.1,19.78,,47.59359,-54.27349
2018-02-14 15:30:00+00:00,257.0,252.0,16.17,20.2,,47.59359,-54.27349
2018-02-14 15:40:00+00:00,255.0,254.0,16.15,25.05,,47.59359,-54.27349
2018-02-14 15:50:00+00:00,254.0,256.0,12.8,17.99,,47.59359,-54.27349
2018-02-14 16:00:00+00:00,259.0,259.0,15.65,19.89,,47.59359,-54.27349
2018-02-14 16:10:00+00:00,264.0,264.0,15.99,20.11,,47.59359,-54.27349
2018-02-14 16:20:00+00:00,253.0,256.0,13.19,18.75,,47.59359,-54.27349
2018-02-14 16:30:00+00:00,264.0,261.0,11.85,12.96,,47.59359,-54.27349
2018-02-14 16:40:00+00:00,262.0,270.0,12.12,15.93,,47.59359,-54.27349
2018-02-14 16:50:00+00:00,264.0,264.0,19.46,21.12,,47.59359,-54.27349
2018-02-14 17:00:00+00:00,267.0,264.0,13.41,18.55,,47.59359,-54.27349
2018-02-14 17:10:00+00:00,255.0,251.0,12.12,13.39,,47.59359,-54.27349
2018-02-14 17:20:00+00:00,255.0,258.0,15.01,20.82,,47.59359,-54.27349
2018-02-14 17:30:00+00:00,268.0,266.0,15.13,19.38,,47.59359,-54.27349
2018-02-14 17:40:00+00:00,265.0,265.0,14.33,19.01,,47.59359,-54.27349
2018-02-14 17:50:00+00:00,256.0,258.0,15.24,19.75,,47.59359,-54.27349
2018-02-14 18:00:00+00:00,263.0,261.0,15.16,21.02,,47.59359,-54.27349
2018-02-14 18:10:00+00:00,266.0,262.0,17.35,20.72,,47.59359,-54.27349
2018-02-14 18:20:00+00:00,262.0,259.0,14.36,18.78,,47.59359,-54.27349
2018-02-14 18:30:00+00:00,259.0,258.0,15.36,20.61,,47.59359,-54.27349
2018-02-14 18:40:00+00:00,261.0,263.0,14.48,21.06,,47.59359,-54.27349
2018-02-14 18:50:00+00:00,259.0,257.0,14.9,19.06,,47.59359,-54.27349
2018-02-14 19:00:00+00:00,264.0,265.0,14.81,17.18,,47.59359,-54.27349
2018-02-14 19:10:00+00:00,261.0,256.0,13.78,15.67,,47.59359,-54.27349
2018-02-14 19:20:00+00:00,262.0,262.0,13.61,15.4,,47.59359,-54.27349
2018-02-14 19:30:00+00:00,262.0,261.0,13.85,15.12,,47.59359,-54.27349
2018-02-14 19:40:00+00:00,261.0,263.0,14.35,18.14,,47.59359,-54.27349
2018-02-14 19:50:00+00:00,251.0,256.0,15.04,17.04,,47.59359,-54.27349
2018-02-14 20:00:00+00:00,258.0,259.0,16.36,21.99,,47.59359,-54.27349
2018-02-14 20:10:00+00:00,253.0,254.0,15.14,18.12,,47.59359,-54.27349
2018-02-14 20:20:00+00:00,259.0,256.0,15.89,22.34,,47.59359,-54.27349
2018-02-14 20:30:00+00:00,260.0,256.0,14.13,16.36,,47.59359,-54.27349
2018-02-14 20:40:00+00:00,254.0,255.0,15.14,17.37,,47.59359,-54.27349
2018-02-14 20:50:00+00:00,251.0,254.0,15.02,17.42,,47.59359,-54.27349
2018-02-14 21:00:00+00:00,255.0,257.0,15.71,21.19,,47.59359,-54.27349
2018-02-14 21:10:00+00:00,258.0,263.0,16.01,21.99,,47.59359,-54.27349
2018-02-14 21:20:00+00:00,257.0,260.0,15.32,16.76,,47.59359,-54.27349
2018-02-14 21:30:00+00:00,253.0,259.0,15.39,17.78,,47.59359,-54.27349
2018-02-14 21:40:00+00:00,255.0,261.0,17.13,22.34,,47.59359,-54.27349
2018-02-14 21:50:00+00:00,253.0,256.0,17.65,23.05,,47.59359,-54.27349
2018-02-14 22:00:00+00:00,252.0,253.0,18.46,23.13,,47.59359,-54.27349
2018-02-14 22:10:00+00:00,255.0,257.0,18.86,23.0,,47.59359,-54.27349
2018-02-14 22:20:00+00:00,254.0,255.0,15.73,17.25,,47.59359,-54.27349
2018-02-14 22:30:00+00:00,259.0,260.0,16.58,22.68,,47.59359,-54.27349
2018-02-14 22:40:00+00:00,261.0,263.0,16.36,22.56,,47.59359,-54.27349
2018-02-14 22:50:00+00:00,259.0,265.0,15.14,16.99,,47.59359,-54.27349
2018-02-14 23:00:00+00:00,256.0,257.0,15.23,17.01,,47.59359,-54.27349
2018-02-14 23:10:00+00:00,262.0,258.0,15.11,16.66,,47.59359,-54.27349
2018-02-14 23:20:00+00:00,259.0,266.0,15.97,21.27,,47.59359,-54.27349
2018-02-14 23:30:00+00:00,258.0,259.0,15.36,17.84,,47.59359,-54.27349
2018-02-14 23:40:00+00:00,253.0,255.0,16.26,20.98,,47.59359,-54.27349
2018-02-14 23:50:00+00:00,254.0,255.0,16.58,22.12,,47.59359,-54.27349
